Date String (YYYY-MM-DD hh:mm:ss) UTC,Instrument flags,Ambient pressure (hPa),Sample flow (lpm),Bypass flow (lpm),Sample temperature (°C),Ambient temperature (°C),ASC tube jacket temperature (°C),LED temperature (°C),Box temperature (°C),Sample RH (%),Span deviation,Mass concentration (μg/m³),Mass concentration (μg/m³),Mass concentration (μg/m³)
DateTimeUTC,F1_M11,P_M11,Q1_M11,Q2_M11,T1_M11,T2_M11,T3_M11,T4_M11,T5_M11,U1_M11,ZSPAN_M11,X0_M11,X2_M11,X1_M11
2022-12-03 02:00:00,,0825.7,4.99,0.00,22.0,21.7,00.0,30.8,23.9,07.8,0000.0,0005.22,0000.84,0000.54
2022-12-03 02:01:00,,0825.7,5.01,0.00,21.9,21.1,00.0,30.8,23.7,07.9,0000.0,0004.27,0000.82,0000.54
2022-12-03 02:02:00,,0825.6,5.01,0.00,21.9,20.7,00.0,30.8,23.5,07.9,0000.0,0003.44,0000.81,0000.55
2022-12-03 02:03:00,,0825.6,4.99,0.00,21.9,20.3,00.0,30.8,23.4,08.0,0000.0,0003.60,0000.82,0000.54
2022-12-03 02:04:00,,0825.6,5.00,0.00,21.8,20.0,00.0,30.8,23.3,07.9,0000.0,0003.83,0000.84,0000.54
2022-12-03 02:05:00,,0825.6,5.00,0.00,21.7,20.1,00.0,30.7,23.3,07.9,0000.0,0003.97,0000.89,0000.54
2022-12-03 02:06:00,,0825.5,5.01,0.00,21.8,21.2,00.0,30.7,23.6,07.9,0000.0,0004.01,0000.91,0000.54
2022-12-03 02:07:00,,0825.7,5.00,0.00,21.9,22.1,00.0,30.7,23.9,07.8,0000.0,0004.14,0000.90,0000.53
2022-12-03 02:08:00,,0825.6,5.00,0.00,22.0,22.0,00.0,30.7,23.9,07.8,0000.0,0004.15,0000.93,0000.53
2022-12-03 02:09:00,,0825.6,4.99,0.00,22.0,21.4,00.0,30.8,23.8,07.8,0000.0,0004.29,0000.94,0000.53
2022-12-03 02:10:00,,0825.6,5.00,0.00,21.9,20.9,00.0,30.8,23.6,07.9,0000.0,0003.28,0000.94,0000.53
2022-12-03 02:11:00,,0825.6,5.01,0.00,21.9,20.5,00.0,30.8,23.5,07.9,0000.0,0002.50,0000.93,0000.53
2022-12-03 02:12:00,,0825.6,5.01,0.00,21.8,20.1,00.0,30.8,23.3,07.9,0000.0,0002.67,0000.98,0000.53
2022-12-03 02:13:00,,0825.6,5.00,0.00,21.8,19.9,00.0,30.8,23.2,07.9,0000.0,0002.85,0001.02,0000.52
2022-12-03 02:14:00,,0825.8,5.00,0.00,21.8,20.7,00.0,30.7,23.4,08.0,0000.0,0002.74,0001.00,0000.52
2022-12-03 02:15:00,,0825.7,4.99,0.00,21.9,21.8,00.0,30.7,23.8,08.0,0000.0,0002.47,0000.97,0000.52
2022-12-03 02:16:00,,0825.6,4.98,0.00,22.0,22.4,00.0,30.7,24.0,07.9,0000.0,0002.31,0000.91,0000.52
2022-12-03 02:17:00,,0825.6,4.99,0.00,22.1,22.0,00.0,30.8,24.0,07.9,0000.0,0002.24,0000.88,0000.52
2022-12-03 02:18:00,,0825.7,5.01,0.00,22.0,21.4,00.0,30.8,23.8,07.9,0000.0,0002.09,0000.88,0000.53
2022-12-03 02:19:00,,0825.7,5.00,0.00,22.0,20.9,00.0,30.8,23.6,07.9,0000.0,0001.93,0000.85,0000.52
2022-12-03 02:20:00,,0825.5,5.00,0.00,21.9,20.5,00.0,30.8,23.5,07.9,0000.0,0002.97,0000.88,0000.53
2022-12-03 02:21:00,,0825.7,5.00,0.00,21.9,20.1,00.0,30.8,23.4,07.9,0000.0,0003.26,0000.89,0000.54
2022-12-03 02:22:00,,0825.8,5.02,0.00,21.8,20.2,00.0,30.8,23.4,07.9,0000.0,0003.48,0000.89,0000.53
2022-12-03 02:23:00,,0825.7,5.01,0.00,21.9,21.3,00.0,30.7,23.7,08.0,0000.0,0003.41,0000.84,0000.52
2022-12-03 02:24:00,,0825.8,5.00,0.00,22.0,22.3,00.0,30.7,24.0,07.9,0000.0,0003.31,0000.81,0000.52
2022-12-03 02:25:00,,0825.9,5.00,0.00,22.1,22.3,00.0,30.8,24.1,07.9,0000.0,0003.26,0000.79,0000.52
2022-12-03 02:26:00,,0825.8,4.98,0.00,22.1,21.6,00.0,30.8,23.9,07.9,0000.0,0003.31,0000.80,0000.52
2022-12-03 02:27:00,,0825.8,5.00,0.00,22.0,21.1,00.0,30.9,23.7,07.9,0000.0,0003.47,0000.82,0000.51
2022-12-03 02:28:00,,0826.1,5.01,0.00,22.0,20.7,00.0,30.9,23.5,07.9,0000.0,0004.04,0000.86,0000.51
2022-12-03 02:29:00,,0825.9,5.00,0.00,21.9,20.3,00.0,30.9,23.4,08.0,0000.0,0004.08,0000.87,0000.51
2022-12-03 02:30:00,,0826.1,5.00,0.00,21.8,19.9,00.0,30.8,23.3,07.9,0000.0,0004.80,0000.87,0000.52
2022-12-03 02:31:00,,0826.2,5.01,0.00,21.8,20.0,00.0,30.8,23.3,08.0,0000.0,0003.87,0000.83,0000.51
2022-12-03 02:32:00,,0826.2,5.01,0.00,21.8,21.1,00.0,30.7,23.6,08.1,0000.0,0003.48,0000.83,0000.51
2022-12-03 02:33:00,,0826.2,5.00,0.00,22.0,22.1,00.0,30.7,23.9,08.0,0000.0,0003.30,0000.82,0000.51
2022-12-03 02:34:00,,0826.3,4.99,0.00,22.1,22.3,00.0,30.8,24.0,08.0,0000.0,0003.35,0000.82,0000.51
2022-12-03 02:35:00,,0826.3,4.98,0.00,22.0,21.6,00.0,30.8,23.9,08.0,0000.0,0003.38,0000.82,0000.52
2022-12-03 02:36:00,,0826.2,5.00,0.00,22.0,21.0,00.0,30.9,23.7,08.0,0000.0,0003.37,0000.83,0000.52
2022-12-03 02:37:00,,0826.3,5.02,0.00,21.9,20.6,00.0,30.9,23.5,08.1,0000.0,0003.40,0000.85,0000.52
2022-12-03 02:38:00,,0826.3,5.01,0.00,21.9,20.3,00.0,30.9,23.4,08.1,0000.0,0003.34,0000.83,0000.52
2022-12-03 02:39:00,,0826.4,4.99,0.00,21.8,20.0,00.0,30.8,23.2,08.2,0000.0,0003.07,0000.83,0000.52
2022-12-03 02:40:00,,0826.5,4.99,0.00,21.7,19.7,00.0,30.8,23.1,08.2,0000.0,0003.13,0000.80,0000.51
2022-12-03 02:41:00,,0826.6,5.00,0.00,21.6,19.7,00.0,30.7,23.1,08.3,0000.0,0002.54,0000.79,0000.49
2022-12-03 02:42:00,,0826.7,5.02,0.00,21.7,20.8,00.0,30.7,23.3,08.3,0000.0,0002.21,0000.80,0000.49
2022-12-03 02:43:00,,0826.7,4.99,0.00,21.8,21.9,00.0,30.6,23.7,08.2,0000.0,0002.09,0000.78,0000.49
2022-12-03 02:44:00,,0826.8,4.99,0.00,21.9,22.1,00.0,30.7,23.8,08.2,0000.0,0001.99,0000.77,0000.49
2022-12-03 02:45:00,,0826.7,4.99,0.00,21.8,21.1,00.0,30.7,23.6,08.2,0000.0,0001.96,0000.79,0000.50
2022-12-03 02:46:00,,0826.8,5.00,0.00,21.7,20.3,00.0,30.7,23.3,08.3,0000.0,0001.82,0000.79,0000.50
2022-12-03 02:47:00,,0826.9,5.00,0.00,21.6,19.7,00.0,30.7,23.1,08.3,0000.0,0002.91,0000.79,0000.49
2022-12-03 02:48:00,,0826.9,5.00,0.00,21.5,19.2,00.0,30.7,22.9,08.4,0000.0,0002.98,0000.76,0000.50
2022-12-03 02:49:00,,0827.1,5.00,0.00,21.4,18.8,00.0,30.7,22.8,08.3,0000.0,0003.03,0000.78,0000.50
2022-12-03 02:50:00,,0827.1,5.01,0.00,21.3,19.5,00.0,30.6,22.9,08.4,0000.0,0002.90,0000.81,0000.51
2022-12-03 02:51:00,,0827.2,5.02,0.00,21.4,21.0,00.0,30.5,23.2,08.4,0000.0,0002.68,0000.81,0000.52
2022-12-03 02:52:00,,0827.2,5.00,0.00,21.6,21.9,00.0,30.5,23.5,08.3,0000.0,0002.82,0000.81,0000.52
2022-12-03 02:53:00,,0827.3,4.99,0.00,21.6,21.5,00.0,30.5,23.4,08.2,0000.0,0003.02,0000.83,0000.52
2022-12-03 02:54:00,,0827.5,4.98,0.00,21.6,20.7,00.0,30.6,23.2,08.2,0000.0,0003.23,0000.85,0000.52
2022-12-03 02:55:00,,0827.3,5.00,0.00,21.5,20.1,00.0,30.6,23.1,08.1,0000.0,0003.42,0000.89,0000.52
2022-12-03 02:56:00,,0827.1,5.01,0.00,21.4,19.7,00.0,30.6,23.0,08.2,0000.0,0003.54,0000.90,0000.51
2022-12-03 02:57:00,,0826.9,5.01,0.00,21.4,19.5,00.0,30.5,22.9,08.1,0000.0,0003.50,0000.90,0000.51
2022-12-03 02:58:00,,0827.1,5.00,0.00,21.3,19.3,00.0,30.5,22.8,08.1,0000.0,0002.36,0000.89,0000.51
2022-12-03 02:59:00,,0827.2,4.99,0.00,21.3,19.2,00.0,30.5,22.8,08.2,0000.0,0002.33,0000.93,0000.51
